N282WB KEYW-07FA

Flight info

Callsign N282WB
Flight time 0h 20m
Altitude 19000
Route DCT
Aircraft C25B/M-SDE2E3FGHRWXY/LB1

Departure

Time 2026-04-30 19:20
Airport Key West International Airport (KEYW)

Arrival

Time 2026-04-30 19:41
Airport Ocean Reef Club Airport (07FA)
Time Latitude Longitude Altitude Speed Heading
2026-04-30 19:13 24.55416 -81.75670 9 ft 0 kts 357°
2026-04-30 19:17 24.55439 -81.75773 9 ft 9 kts 327°
2026-04-30 19:17 24.55491 -81.75783 9 ft 1 kts 360°
2026-04-30 19:18 24.55527 -81.75833 9 ft 15 kts 267°
2026-04-30 19:18 24.55525 -81.76024 4 ft 21 kts 269°
2026-04-30 19:18 24.55523 -81.76195 3 ft 23 kts 269°
2026-04-30 19:19 24.55522 -81.76372 3 ft 24 kts 269°
2026-04-30 19:19 24.55520 -81.76542 2 ft 17 kts 270°
2026-04-30 19:19 24.55606 -81.76627 4 ft 13 kts 89°
2026-04-30 19:20 24.55611 -81.76212 2 ft 113 kts 89°
2026-04-30 19:20 24.55649 -81.75007 416 ft 194 kts 86°
2026-04-30 19:20 24.57290 -81.72831 2718 ft 211 kts
2026-04-30 19:21 24.58837 -81.72840 3437 ft 234 kts 354°
2026-04-30 19:21 24.62115 -81.73118 5364 ft 239 kts 354°
2026-04-30 19:22 24.65499 -81.73448 7094 ft 247 kts 354°
2026-04-30 19:22 24.70693 -81.73935 9723 ft 252 kts 354°
2026-04-30 19:23 24.76008 -81.74386 12069 ft 259 kts 354°
2026-04-30 19:24 24.79697 -81.74280 12967 ft 294 kts 20°
2026-04-30 19:24 24.81364 -81.72805 12968 ft 327 kts 50°
2026-04-30 19:24 24.82874 -81.67789 12989 ft 367 kts 76°
2026-04-30 19:25 24.85476 -81.59504 12986 ft 399 kts 63°
2026-04-30 19:26 24.87615 -81.53729 12984 ft 408 kts 68°
2026-04-30 19:26 24.89618 -81.48097 12984 ft 388 kts 66°
2026-04-30 19:26 24.90634 -81.45355 12987 ft 384 kts 66°
2026-04-30 19:27 24.92902 -81.40110 12972 ft 375 kts 53°
2026-04-30 19:27 24.95000 -81.34906 12970 ft 377 kts 75°
2026-04-30 19:28 24.95551 -81.32080 12971 ft 377 kts 76°
2026-04-30 19:28 24.96957 -81.26544 12974 ft 375 kts 69°
2026-04-30 19:29 24.98439 -81.21040 12550 ft 370 kts 73°
2026-04-30 19:29 24.99127 -81.18326 12178 ft 363 kts 72°
2026-04-30 19:30 25.01230 -81.10416 11091 ft 360 kts 72°
2026-04-30 19:30 25.02385 -81.05985 10508 ft 363 kts 72°
2026-04-30 19:31 25.04020 -80.99760 9694 ft 364 kts 72°
2026-04-30 19:31 25.04498 -80.97952 9439 ft 363 kts 72°
2026-04-30 19:31 25.05893 -80.92603 8694 ft 362 kts 72°
2026-04-30 19:32 25.06582 -80.89966 8334 ft 362 kts 73°
2026-04-30 19:32 25.07277 -80.87303 7971 ft 361 kts 73°
2026-04-30 19:32 25.07972 -80.84642 7614 ft 360 kts 73°
2026-04-30 19:32 25.08662 -80.81988 7258 ft 360 kts 73°
2026-04-30 19:33 25.09354 -80.79339 6998 ft 356 kts 73°
2026-04-30 19:33 25.10043 -80.76694 6999 ft 357 kts 73°
2026-04-30 19:33 25.10712 -80.74112 6994 ft 343 kts 74°
2026-04-30 19:33 25.11344 -80.71666 6990 ft 319 kts 73°
2026-04-30 19:34 25.11939 -80.69382 6985 ft 301 kts 73°
2026-04-30 19:34 25.12503 -80.67220 6986 ft 286 kts 73°
2026-04-30 19:34 25.13548 -80.63163 6982 ft 268 kts 74°
2026-04-30 19:35 25.14067 -80.61187 6985 ft 271 kts 73°
2026-04-30 19:35 25.14592 -80.59171 6987 ft 275 kts 73°
2026-04-30 19:35 25.15122 -80.57101 6712 ft 285 kts 73°
2026-04-30 19:35 25.15661 -80.55019 6343 ft 279 kts 74°
2026-04-30 19:36 25.16184 -80.52983 5942 ft 273 kts 74°
2026-04-30 19:36 25.16704 -80.50984 5555 ft 268 kts 74°
2026-04-30 19:36 25.17705 -80.47103 4784 ft 256 kts 74°
2026-04-30 19:37 25.18183 -80.45239 4385 ft 248 kts 74°
2026-04-30 19:37 25.18654 -80.43429 4053 ft 242 kts 74°
2026-04-30 19:37 25.19106 -80.41661 3734 ft 239 kts 74°
2026-04-30 19:37 25.19570 -80.39860 3419 ft 246 kts 72°
2026-04-30 19:38 25.20430 -80.38222 3078 ft 250 kts 50°
2026-04-30 19:38 25.21674 -80.36906 2749 ft 245 kts 37°
2026-04-30 19:38 25.22989 -80.35809 2444 ft 234 kts 39°
2026-04-30 19:38 25.24184 -80.34743 2177 ft 210 kts 39°
2026-04-30 19:39 25.25234 -80.33834 1902 ft 176 kts 39°
2026-04-30 19:39 25.26147 -80.33042 1661 ft 155 kts 39°
2026-04-30 19:39 25.26937 -80.32353 1425 ft 138 kts 39°
2026-04-30 19:39 25.27676 -80.31714 1213 ft 135 kts 40°
2026-04-30 19:40 25.28424 -80.31056 1016 ft 140 kts 39°
2026-04-30 19:40 25.29199 -80.30388 822 ft 142 kts 39°
2026-04-30 19:40 25.29985 -80.29703 603 ft 145 kts 40°
2026-04-30 19:40 25.30753 -80.29040 305 ft 138 kts 43°
2026-04-30 19:41 25.31495 -80.28392 132 ft 131 kts 41°
2026-04-30 19:41 25.32168 -80.27811 11 ft 112 kts 40°
2026-04-30 19:41 25.32531 -80.27488 9 ft 23 kts 33°
2026-04-30 19:41 25.32540 -80.27471 10 ft 7 kts 219°
2026-04-30 19:42 25.32476 -80.27535 10 ft 15 kts 218°
2026-04-30 19:42 25.32376 -80.27622 8 ft 21 kts 218°
2026-04-30 19:42 25.32248 -80.27733 8 ft 25 kts 218°